When you browse on this site, cookies collect data to enhance your experience and personalize the content and advertising you see.
Visit our Privacy Policy to learn more. By continuing to use the site, you agree to this use of cookies and data.
  • In Portugal
  • List of Countries
  • For 7 days
  • Water Temperature
  • Satellite Maps
  • Weather Map
  • Weather Widgets
  • user-avatar
    Login

    Hourly Weather Boma

    Today, 27 March, Wednesday

    Time Temperature Precipitation Wind Pressure Humidity
    00:00 +22°C° 0 mm 0 mps 700 mmHg 68%
    01:00 +22°C° 0 mm 0 mps 700 mmHg 70%
    02:00 +22°C° 0 mm 0 mps 700 mmHg 73%
    03:00 +21°C° 0 mm 0 mps 700 mmHg 75%
    04:00 +21°C° 0 mm 0 mps 700 mmHg 78%
    05:00 +21°C° 0 mm 0 mps 700 mmHg 79%
    06:00 +21°C° 0 mm 0 mps 701 mmHg 81%
    07:00 +21°C° 0 mm 0 mps 701 mmHg 82%
    08:00 +24°C° 0 mm 0 mps 701 mmHg 72%
    09:00 +27°C° 0 mm 0 mps 702 mmHg 62%
    10:00 +32°C° 0 mm 1 mps 703 mmHg 52%
    11:00 +33°C° 0 mm 0 mps 702 mmHg 43%
    12:00 +35°C° 0 mm 0 mps 702 mmHg 35%
    13:00 +38°C° 0 mm 0 mps 701 mmHg 26%
    14:00 +37°C° 0 mm 0 mps 701 mmHg 28%
    15:00 +39°C° 0 mm 1 mps 700 mmHg 29%
    16:00 +37°C° 0 mm 1 mps 699 mmHg 30%
    17:00 +34°C° 0 mm 1 mps 699 mmHg 36%
    18:00 +32°C° 0 mm 1 mps 699 mmHg 42%
    19:00 +28°C° 0 mm 0 mps 699 mmHg 48%
    20:00 +27°C° 0 mm 0 mps 699 mmHg 52%
    21:00 +28°C° 0 mm 1 mps 700 mmHg 56%
    22:00 +27°C° 0 mm 1 mps 700 mmHg 60%
    23:00 +27°C° 0 mm 1 mps 700 mmHg 64%

    Tomorrow, 28 March, Thursday

    Time Temperature Precipitation Wind Pressure Humidity
    00:00 +24°C° 0 mm 0 mps 701 mmHg 68%
    01:00 +24°C° 0 mm 0 mps 701 mmHg 72%
    02:00 +24°C° 0 mm 0 mps 701 mmHg 75%
    03:00 +23°C° 0 mm 0 mps 700 mmHg 78%
    04:00 +23°C° 0 mm 0 mps 700 mmHg 81%
    05:00 +23°C° 0 mm 0 mps 700 mmHg 81%
    06:00 +23°C° 0 mm 0 mps 701 mmHg 81%
    07:00 +23°C° 0 mm 0 mps 701 mmHg 80%
    08:00 +28°C° 0 mm 1 mps 701 mmHg 69%
    09:00 +31°C° 0 mm 1 mps 702 mmHg 58%
    10:00 +34°C° 0 mm 1 mps 703 mmHg 47%
    11:00 +34°C° 0 mm 0 mps 702 mmHg 41%
    12:00 +36°C° 0 mm 0 mps 702 mmHg 36%
    13:00 +38°C° 0 mm 0 mps 701 mmHg 30%
    14:00 +36°C° 0 mm 0 mps 700 mmHg 33%
    15:00 +37°C° 0 mm 1 mps 700 mmHg 37%
    16:00 +35°C° 0 mm 1 mps 699 mmHg 40%
    17:00 +32°C° 7.4 mm 2 mps 698 mmHg 58%
    18:00 +28°C° 7.4 mm 2 mps 698 mmHg 75%
    19:00 +25°C° 7.4 mm 3 mps 698 mmHg 92%
    20:00 +25°C° 10.7 mm 2 mps 699 mmHg 94%
    21:00 +25°C° 10.7 mm 2 mps 700 mmHg 95%
    22:00 +24°C° 10.7 mm 1 mps 701 mmHg 97%
    23:00 +24°C° 1.5 mm 1 mps 700 mmHg 97%

    Day after tomorrow, 29 March, Friday

    Time Temperature Precipitation Wind Pressure Humidity
    00:00 +22°C° 1.5 mm 0 mps 700 mmHg 97%
    01:00 +22°C° 1.5 mm 0 mps 700 mmHg 98%
    02:00 +22°C° 0.2 mm 0 mps 700 mmHg 98%
    03:00 +22°C° 0.2 mm 0 mps 699 mmHg 97%
    04:00 +22°C° 0.2 mm 0 mps 699 mmHg 97%
    05:00 +22°C° 0 mm 0 mps 700 mmHg 97%
    06:00 +22°C° 0 mm 0 mps 700 mmHg 97%
    07:00 +24°C° 0 mm 1 mps 701 mmHg 96%
    08:00 +26°C° 0 mm 1 mps 701 mmHg 87%
    09:00 +27°C° 0 mm 1 mps 702 mmHg 78%
    10:00 +29°C° 0 mm 1 mps 702 mmHg 69%
    11:00 +31°C° 0 mm 1 mps 701 mmHg 61%
    12:00 +34°C° 0 mm 1 mps 701 mmHg 52%
    13:00 +36°C° 0 mm 1 mps 700 mmHg 44%
    14:00 +35°C° 0 mm 1 mps 699 mmHg 45%
    15:00 +35°C° 0 mm 1 mps 699 mmHg 46%
    16:00 +32°C° 0 mm 0 mps 698 mmHg 47%
    17:00 +30°C° 0 mm 0 mps 698 mmHg 55%
    18:00 +28°C° 0 mm 0 mps 698 mmHg 62%
    19:00 +26°C° 0 mm 0 mps 698 mmHg 70%
    20:00 +25°C° 0.7 mm 0 mps 699 mmHg 75%
    21:00 +24°C° 0.7 mm 0 mps 699 mmHg 81%
    22:00 +24°C° 0.7 mm 0 mps 700 mmHg 87%
    23:00 +23°C° 0 mm 0 mps 700 mmHg 88%

    30 March, Saturday

    Time Temperature Precipitation Wind Pressure Humidity
    00:00 +25°C° 0 mm 1 mps 699 mmHg 90%
    01:00 +25°C° 0 mm 1 mps 699 mmHg 91%
    02:00 +25°C° 0 mm 1 mps 699 mmHg 91%
    03:00 +25°C° 0 mm 1 mps 698 mmHg 91%
    04:00 +25°C° 0 mm 1 mps 698 mmHg 91%
    05:00 +25°C° 0 mm 1 mps 699 mmHg 91%
    06:00 +25°C° 0 mm 1 mps 699 mmHg 92%
    07:00 +25°C° 0 mm 1 mps 700 mmHg 93%
    08:00 +26°C° 0 mm 1 mps 700 mmHg 85%
    09:00 +28°C° 0 mm 1 mps 701 mmHg 76%
    10:00 +28°C° 0 mm 0 mps 701 mmHg 68%
    11:00 +31°C° 0 mm 0 mps 701 mmHg 57%
    12:00 +33°C° 0 mm 0 mps 700 mmHg 47%
    13:00 +36°C° 0 mm 0 mps 699 mmHg 36%
    14:00 +39°C° 0 mm 1 mps 699 mmHg 34%
    15:00 +37°C° 0 mm 1 mps 698 mmHg 33%
    16:00 +37°C° 0 mm 1 mps 697 mmHg 31%
    17:00 +34°C° 0 mm 1 mps 697 mmHg 37%
    18:00 +30°C° 0 mm 0 mps 697 mmHg 44%
    19:00 +27°C° 0 mm 0 mps 697 mmHg 51%
    20:00 +27°C° 0 mm 0 mps 698 mmHg 53%
    21:00 +26°C° 0 mm 0 mps 698 mmHg 56%
    22:00 +27°C° 0 mm 1 mps 698 mmHg 58%
    23:00 +26°C° 0 mm 1 mps 698 mmHg 64%

    31 March, Sunday

    Time Temperature Precipitation Wind Pressure Humidity
    00:00 +26°C° 0 mm 1 mps 698 mmHg 70%
    01:00 +25°C° 0 mm 1 mps 698 mmHg 76%
    02:00 +25°C° 0 mm 1 mps 698 mmHg 81%
    03:00 +25°C° 0 mm 1 mps 698 mmHg 87%
    04:00 +24°C° 0 mm 1 mps 698 mmHg 92%
    05:00 +25°C° 0 mm 1 mps 698 mmHg 92%
    06:00 +25°C° 0 mm 1 mps 699 mmHg 92%
    07:00 +25°C° 0 mm 1 mps 699 mmHg 91%
    08:00 +27°C° 0 mm 1 mps 700 mmHg 82%
    09:00 +29°C° 0 mm 1 mps 700 mmHg 74%
    10:00 +30°C° 0 mm 1 mps 700 mmHg 65%
    11:00 +33°C° 0 mm 1 mps 700 mmHg 56%
    12:00 +35°C° 0 mm 1 mps 699 mmHg 47%
    13:00 +37°C° 0 mm 1 mps 699 mmHg 38%
    14:00 +37°C° 0 mm 1 mps 698 mmHg 37%
    15:00 +37°C° 0 mm 1 mps 698 mmHg 36%
    16:00 +35°C° 0 mm 0 mps 697 mmHg 35%
    17:00 +34°C° 0 mm 1 mps 697 mmHg 43%
    18:00 +32°C° 0 mm 1 mps 697 mmHg 52%
    19:00 +29°C° 0 mm 1 mps 697 mmHg 61%
    20:00 +28°C° 0 mm 1 mps 697 mmHg 66%
    21:00 +27°C° 0 mm 1 mps 698 mmHg 71%
    22:00 +27°C° 0 mm 1 mps 698 mmHg 76%
    23:00 +26°C° 0.3 mm 1 mps 698 mmHg 80%

    1 April, Monday

    Time Temperature Precipitation Wind Pressure Humidity
    00:00 +25°C° 0.3 mm 1 mps 699 mmHg 84%
    01:00 +25°C° 0.3 mm 1 mps 699 mmHg 88%
    02:00 +25°C° 0.5 mm 1 mps 699 mmHg 89%
    03:00 +25°C° 0.5 mm 1 mps 699 mmHg 90%
    04:00 +25°C° 0.5 mm 1 mps 699 mmHg 91%
    05:00 +25°C° 0.1 mm 1 mps 699 mmHg 92%
    06:00 +25°C° 0.1 mm 1 mps 700 mmHg 92%
    07:00 +24°C° 0.1 mm 1 mps 700 mmHg 92%
    08:00 +26°C° 0 mm 1 mps 701 mmHg 83%
    09:00 +28°C° 0 mm 1 mps 701 mmHg 74%
    10:00 +30°C° 0 mm 1 mps 701 mmHg 65%
    11:00 +31°C° 0 mm 1 mps 701 mmHg 59%
    12:00 +33°C° 0 mm 1 mps 700 mmHg 53%
    13:00 +34°C° 0 mm 1 mps 700 mmHg 47%
    14:00 +34°C° 0 mm 1 mps 699 mmHg 45%
    15:00 +34°C° 0 mm 1 mps 698 mmHg 44%
    16:00 +34°C° 0 mm 1 mps 698 mmHg 42%
    17:00 +32°C° 0 mm 1 mps 698 mmHg 49%
    18:00 +30°C° 0 mm 1 mps 698 mmHg 56%
    19:00 +28°C° 0 mm 1 mps 698 mmHg 64%
    20:00 +28°C° 0 mm 1 mps 699 mmHg 65%
    21:00 +25°C° 0 mm 0 mps 699 mmHg 67%
    22:00 +25°C° 0 mm 0 mps 699 mmHg 68%
    23:00 +24°C° 0 mm 0 mps 699 mmHg 71%
    Show more